Regional Weather Roundup
Issued by NWS

Home | Current Version | Previous Version | Text Only | Print | Product List | Glossary Off
Versions: 1 2 3 4 5 6 7 8 9 10 11 12 13 14 15 16 17 18 19 20 21 22 23 24 25 26 27 28 29 30 31 32 33 34 35 36 37 38 39 40 41 42 43 44 45 46 47 48 49 50

000
ASUS45 KBOU 070407
RWRCO

WEATHER ROUNDUP FOR COLORADO
NATIONAL WEATHER SERVICE DENVER/BOULDER CO
900 PM MST SAT FEB 06 2016

NOTE: "FAIR" INDICATES FEW OR NO CLOUDS BELOW 12000 FEET WITH NO
SIGNIFICANT WEATHER AND/OR OBSTRUCTIONS TO VISIBILITY.

COZ001>005-013-030-031-070500-
...NORTHWEST COLORADO...

CITY           SKY/WX    TMP DP  RH WIND       PRES   REMARKS
CRAIG          CLOUDY     3  -2  79 CALM      30.41R
HAYDEN         CLOUDY    10   3  72 CALM      30.39S
MEEKER         CLOUDY    16   9  74 E6        30.39S WCI   7
MOUNT WERNER   NOT AVBL
STEAMBOAT SPGS CLOUDY    10   7  85 CALM      30.39R
WALDEN         CLOUDY    30  14  51 S16       30.31S WCI  19
$$

COZ006>008-011-070500-
...WEST CENTRAL VALLEYS...

CITY           SKY/WX    TMP DP  RH WIND       PRES   REMARKS
GRAND JUNCTION CLOUDY    11   8  88 CALM      30.49S
MONTROSE       CLOUDY    13   7  77 S9        30.49R WCI   1
EAGLE          CLEAR     14  12  92 CALM      30.45R
RIFLE          CLOUDY    15   8  73 CALM      30.48R
DELTA          CLOUDY    18  14  83 NE3       30.49S
NUCLA          CLOUDY    23  14  68 SE8       30.48R WCI  14
$$

COZ017>023-064>068-070500-
...SOUTHWEST COLORADO...

CITY           SKY/WX    TMP DP  RH WIND       PRES   REMARKS
DURANGO        CLOUDY    11   5  77 N7        30.39S WCI   0
CORTEZ         CLOUDY    17  12  80 E9        30.42R WCI   6
PAGOSA SPRINGS CLOUDY    12  11  93 CALM      30.38S
TELLURIDE      CLOUDY    23  15  71 SE7       30.42R WCI  14
WOLF CREEK PAS CLOUDY    21   3  45 CALM      30.41S
$$

COZ009-010-012-014-032>034-037-058>063-070500-
...CENTRAL COLORADO...

CITY           SKY/WX    TMP DP  RH WIND       PRES   REMARKS
ASPEN          CLOUDY    13   8  81 S7        30.39R WCI   3
BUENA VISTA    CLOUDY    25  13  58 S3        30.29R
COPPER MTN     CLOUDY    19  10  68 W12       30.36S WCI   7
BERTHOUD PASS  FAIR      12   1  62 NW48G62   30.25F HAZE    WCI -13
COTTONWOOD PAS CLOUDY    34   1  25 SW9G21    30.31R WCI  26
GUNNISON       CLOUDY    -6 -18  54 NE5       30.48R WCI -17
KREMMLING      CLOUDY     1  -4  78 CALM      30.42S
LEADVILLE      CLOUDY    14   8  77 CALM      30.34S
MONARCH PASS     N/A     12  10  92 MISG      30.41S
SALIDA         NOT AVBL
SUNLIGHT       CLOUDY    21  18  86 CALM        N/A
WILKERSON PASS CLOUDY    25   3  39 NW8G22    30.31R WCI  16
$$

COZ069>075-070500-
...SAN LUIS VALLEY/SANGRE DE CRISTO MOUNTAINS...

CITY           SKY/WX    TMP DP  RH WIND       PRES   REMARKS
ALAMOSA        CLOUDY    10   7  87 CALM      30.35R
LA VETA PASS   CLOUDY    19   9  63 MISG      30.27S
SAGUACHE       CLOUDY     9   3  78 CALM      30.36S
$$

COZ035-036-038>040-070500-
...NORTHERN COLORADO FRONT RANGE...

CITY           SKY/WX    TMP DP  RH WIND       PRES   REMARKS
DENVER INTL AP CLOUDY    42  16  34 W9        30.10S
DMNS CITY PARK   N/A     47  11  23 S9        30.12R
AURORA         MOCLDY    44  12  27 S6        30.12F
FRONT RANGE AP MOCLDY    39  19  45 SW12      30.12S
ERIE MUNI ARPT CLOUDY    38  20  47 CALM      30.09F
BOULDER MUN AP CLOUDY    46  14  27 NE3       30.08F
CENTENNIAL     CLOUDY    41  15  35 W5        30.13R
BROOMFIELD     MOCLDY    48  12  23 W26G33    30.10F
FORT COLLINS   CLOUDY    41  19  42 S6        30.09S
LONGMONT       CLOUDY    48  14  26 SW13G20   30.10F
$$

COZ041-046-047-076>085-087-088-070500-
...PIKES PEAK/PALMER DIVIDE AND SOUTHERN FOOTHILLS...

CITY           SKY/WX    TMP DP  RH WIND       PRES   REMARKS
COLO. SPRINGS  CLOUDY    43  14  31 NW10      30.15S
A. F. ACADEMY  CLOUDY    45  12  26 W21G28    30.15R
SCHRIEVER AFB  FAIR      40  15  35 NW13G22   30.14F
ELLICOTT       NOT AVBL
FALCON         CLOUDY    40  13  33 NW16      30.16S
FORT CARSON    CLOUDY    31  14  47 CALM      30.12F
LIMON          CLOUDY    28  17  63 W13       30.12F WCI  17
MONUMENT HILL  CLOUDY    32  14  47 W7        30.18R WCI  26
TRINIDAD       CLOUDY    31  17  56 W13       30.17R WCI  21
$$

COZ042>045-048>051-090-091-070500-
...NORTHEAST COLORADO...

CITY           SKY/WX    TMP DP  RH WIND       PRES   REMARKS
GREELEY ARPT   CLOUDY    25  16  68 W8        30.10S WCI  16
AKRON          CLOUDY    32  24  72 W18       30.05R WCI  20
BURLINGTON     CLOUDY    30  19  63 W17       30.07S WCI  18
WRAY           CLOUDY    33  27  77 W6        30.04R WCI  28
STERLING       CLOUDY    30  23  74 SW5       30.04R WCI  25
HOLYOKE        CLOUDY    34  27  75 N15       30.07R WCI  24
FORT MORGAN    CLOUDY    28  20  71 W8        30.07F WCI  20
$$

COZ086-089-092>099-070500-
...SOUTHEAST COLORADO...

CITY           SKY/WX    TMP DP  RH WIND       PRES   REMARKS
PUEBLO         CLOUDY    28  20  71 CALM      30.13R
LA JUNTA       CLOUDY    30  23  75 W7        30.10F WCI  23
LAMAR          CLOUDY    28  23  81 W6        30.09S WCI  22
SPRINGFIELD      N/A     29  13  51 SW9       30.11F WCI  20
$$



USA.gov is the U.S. government's official web portal to all federal, state and local government web resources and services.